FW4657 Weather Reports


time (UTC)temp
C
wind
direction
speed
KPH
gust
KPH
rain 1hr
cm
rain 24hr
cm
rain mn
cm
humidity
%
barometer
mb
20260504212115 19 199 0.0 3.2 0.00 0.00 0.00 44 1007.9
20260504211613 19 74 0.0 6.4 0.00 0.00 0.00 45 1008.3
20260504211109 18 37 0.0 3.2 0.00 0.00 0.00 47 1008.3
20260504210607 18 237 1.6 4.8 0.00 0.00 0.00 46 1008.3
20260504205601 18 317 3.2 4.8 0.00 0.00 0.00 47 1007.9
20260504205058 18 85 0.0 3.2 0.00 0.00 0.00 48 1007.9
20260504204556 18 302 1.6 9.7 0.00 0.00 0.00 48 1008.3
20260504204055 18 31 0.0 4.8 0.00 0.00 0.00 48 1008.3
20260504203553 18 330 0.0 4.8 0.00 0.00 0.00 48 1007.9
20260504203050 18 49 0.0 4.8 0.00 0.00 0.00 48 1008.3
20260504202545 19 312 1.6 3.2 0.00 0.00 0.00 47 1008.3
20260504202042 18 1 0.0 3.2 0.00 0.00 0.00 48 1008.3
20260504201539 17 20 0.0 3.2 0.00 0.00 0.00 51 1007.9
20260504201037 17 226 0.0 1.6 0.00 0.00 0.00 50 1008.3
20260504200533 17 184 0.0 0.0 0.00 0.00 0.00 50 1008.3
20260504200031 17 317 1.6 6.4 0.00 0.00 0.00 50 1008.3
20260504195526 17 8 1.6 3.2 0.00 0.00 0.00 51 1008.3
20260504195023 18 40 0.0 3.2 0.00 0.00 0.00 50 1008.3
20260504194520 17 84 0.0 6.4 0.00 0.00 0.00 52 1008.6
20260504194015 17 320 0.0 1.6 0.00 0.00 0.00 51 1008.6
20260504193512 17 339 0.0 3.2 0.00 0.00 0.00 51 1008.6
20260504193011 17 1 4.8 4.8 0.00 0.00 0.00 53 1008.6
20260504192509 17 302 1.6 4.8 0.00 0.00 0.00 53 1009.0
20260504192007 16 234 0.0 4.8 0.00 0.00 0.00 54 1009.0
20260504191504 16 89 1.6 6.4 0.00 0.00 0.00 54 1009.0
20260504191000 15 27 3.2 6.4 0.00 0.00 0.00 55 1009.0
20260504190455 15 230 0.0 3.2 0.00 0.00 0.00 56 1009.0
20260504185952 16 80 0.0 0.0 0.00 0.00 0.00 55 1009.0
20260504185449 15 33 3.2 4.8 0.00 0.00 0.00 55 1009.0
20260504184946 15 12 1.6 6.4 0.00 0.00 0.00 56 1009.3
20260504184441 15 294 8.0 9.7 0.00 0.00 0.00 55 1009.0
20260504183937 15 37 3.2 4.8 0.00 0.00 0.00 56 1009.3
20260504183435 16 36 3.2 4.8 0.00 0.00 0.00 56 1009.3
20260504182933 15 229 1.6 4.8 0.00 0.00 0.00 58 1009.3
20260504182429 15 98 0.0 0.0 0.00 0.00 0.00 57 1009.3
20260504181926 15 183 0.0 6.4 0.00 0.00 0.00 58 1009.3
20260504181423 16 62 0.0 1.6 0.00 0.00 0.00 60 1009.3
20260504180922 15 65 0.0 1.6 0.00 0.00 0.00 59 1009.0
20260504180421 14 172 0.0 3.2 0.00 0.00 0.00 61 1009.3
20260504175918 14 332 0.0 6.4 0.00 0.00 0.00 61 1009.3
20260504175415 14 8 1.6 3.2 0.00 0.00 0.00 60 1009.6
20260504174913 14 122 1.6 3.2 0.00 0.00 0.00 60 1009.3
20260504174410 14 320 1.6 4.8 0.00 0.00 0.00 59 1009.3
20260504173908 15 46 0.0 1.6 0.00 0.00 0.00 60 1009.3
20260504173404 14 316 1.6 4.8 0.00 0.00 0.00 61 1009.3
20260504172901 14 221 0.0 0.0 0.00 0.00 0.00 61 1009.6
20260504172357 14 334 1.6 3.2 0.00 0.00 0.00 61 1009.6
20260504171853 13 47 0.0 3.2 0.00 0.00 0.00 62 1009.6
20260504171351 14 29 0.0 3.2 0.00 0.00 0.00 59 1009.6
20260504170848 14 336 0.0 1.6 0.00 0.00 0.00 60 1009.6
20260504170344 14 76 3.2 4.8 0.00 0.00 0.00 59 1009.6
20260504160303 16 75 3.2 4.8 0.00 0.00 0.00 52 1007.9
20260504150728 15 203 1.6 4.8 0.00 0.00 0.00 55 1008.3
20260504150225 15 147 0.0 6.4 0.00 0.00 0.00 56 1008.6
20260504141154 14 75 1.6 3.2 0.00 0.00 0.00 59 1009.6
20260504140651 13 48 1.6 4.8 0.00 0.00 0.00 60 1009.6
20260504140146 13 18 0.0 1.6 0.00 0.00 0.00 61 1009.6
20260504130615 11 52 0.0 1.6 0.00 0.00 0.00 65 1010.8
20260504130112 10 72 3.2 3.2 0.00 0.00 0.00 68 1010.8
20260504110503 5 87 0.0 0.0 0.00 0.00 0.00 76 1011.4
20260504100419 0 322 0.0 0.0 0.00 0.00 0.00 90 1011.1
20260504081812 -1 17 0.0 0.0 0.00 0.00 0.00 94 1011.4
20260504081309 -1 314 0.0 0.0 0.00 0.00 0.00 94 1011.1
20260504080805 -1 322 0.0 0.0 0.00 0.00 0.00 94 1011.1
20260504080302 -1 323 0.0 0.0 0.00 0.00 0.00 94 1011.1
20260504070229 -1 301 0.0 0.0 0.00 0.00 0.00 94 1011.4
20260504060150 -1 13 0.0 0.0 0.00 0.00 0.00 93 1010.8
20260504050618 0 300 0.0 0.0 0.00 0.00 0.00 91 1010.8
20260504050115 0 292 0.0 0.0 0.00 0.00 0.00 91 1010.8
20260504045612 0 358 0.0 0.0 0.00 0.00 0.00 90 1010.8
20260504045107 0 333 0.0 0.0 0.00 0.00 0.00 91 1010.8
20260504044605 0 296 0.0 0.0 0.00 0.00 0.00 90 1010.8
20260504044102 0 13 0.0 0.0 0.00 0.00 0.00 89 1010.8
20260504043559 0 256 0.0 0.0 0.00 0.00 0.00 89 1010.8
20260504043055 0 322 0.0 0.0 0.00 0.00 0.00 89 1011.1
20260504042552 0 304 0.0 0.0 0.00 0.00 0.00 88 1010.8
20260504042049 0 325 0.0 0.0 0.00 0.00 0.00 87 1010.8
20260504041545 0 313 0.0 0.0 0.00 0.00 0.00 88 1010.8
20260504041042 0 291 0.0 0.0 0.00 0.00 0.00 87 1010.8
20260504040539 0 340 0.0 0.0 0.00 0.00 0.00 87 1010.8
20260504040036 0 341 0.0 0.0 0.00 0.00 0.00 88 1010.8
20260504035532 0 284 0.0 0.0 0.00 0.00 0.00 87 1010.8
20260504035029 0 286 0.0 0.0 0.00 0.00 0.00 87 1010.8
20260504034527 0 333 0.0 0.0 0.00 0.00 0.00 86 1010.8
20260504034023 0 298 0.0 0.0 0.00 0.00 0.00 85 1010.8
20260504033521 0 293 0.0 0.0 0.00 0.00 0.00 85 1010.8
20260504033019 1 312 0.0 0.0 0.00 0.00 0.00 83 1010.8
20260504032515 1 331 0.0 0.0 0.00 0.00 0.00 82 1010.8
20260504032012 1 332 0.0 0.0 0.00 0.00 0.00 83 1010.8
20260504031509 2 320 0.0 0.0 0.00 0.00 0.00 81 1010.8
20260504031005 1 274 0.0 0.0 0.00 0.00 0.00 83 1010.4
20260504030503 1 314 0.0 0.0 0.00 0.00 0.00 81 1010.4
20260504025958 2 313 0.0 0.0 0.00 0.00 0.00 80 1010.4
20260504025456 2 336 0.0 0.0 0.00 0.00 0.00 79 1010.8
20260504024952 2 303 0.0 0.0 0.00 0.00 0.00 81 1010.8
20260504024449 2 339 0.0 0.0 0.00 0.00 0.00 80 1010.8
20260504023946 2 292 0.0 0.0 0.00 0.00 0.00 80 1010.8
20260504023443 2 286 0.0 0.0 0.00 0.00 0.00 79 1010.8
20260504022938 2 207 0.0 0.0 0.00 0.00 0.00 80 1010.8
20260504022435 2 327 0.0 0.0 0.00 0.00 0.00 78 1010.8
20260504021932 2 195 0.0 0.0 0.00 0.00 0.00 79 1010.4
20260504021429 2 207 0.0 0.0 0.00 0.00 0.00 79 1010.8
20260504020926 2 331 0.0 0.0 0.00 0.00 0.00 80 1010.4
20260504020423 2 276 0.0 0.0 0.00 0.00 0.00 79 1010.4
20260504015920 2 319 0.0 0.0 0.00 0.00 0.00 80 1010.4
20260504015415 2 314 0.0 0.0 0.00 0.00 0.00 76 1010.8
20260504014912 3 287 0.0 0.0 0.00 0.00 0.00 76 1010.4
20260504014408 3 299 0.0 0.0 0.00 0.00 0.00 75 1010.4
20260504013905 3 272 0.0 0.0 0.00 0.00 0.00 75 1010.4
20260504013403 3 246 0.0 0.0 0.00 0.00 0.00 76 1010.8
20260504012859 4 213 0.0 0.0 0.00 0.00 0.00 72 1010.8
20260504012357 4 319 0.0 0.0 0.00 0.00 0.00 72 1010.8
20260504011854 4 272 0.0 0.0 0.00 0.00 0.00 71 1010.4
20260504011351 4 232 0.0 0.0 0.00 0.00 0.00 73 1010.4
20260504010847 4 227 0.0 0.0 0.00 0.00 0.00 72 1010.0
20260504010343 4 298 0.0 0.0 0.00 0.00 0.00 69 1010.4
20260504005839 5 228 0.0 0.0 0.00 0.00 0.00 69 1010.0
20260504005336 5 306 0.0 0.0 0.00 0.00 0.00 69 1010.0
20260504004834 5 296 0.0 0.0 0.00 0.00 0.00 69 1010.0
20260504004331 5 176 0.0 0.0 0.00 0.00 0.00 69 1009.6
20260504003827 5 284 0.0 0.0 0.00 0.00 0.00 67 1010.0
20260504003325 5 272 0.0 0.0 0.00 0.00 0.00 67 1009.6
20260504002821 5 239 0.0 0.0 0.00 0.00 0.00 70 1009.6
20260504002318 5 179 1.6 1.6 0.00 0.00 0.00 68 1009.6
20260504001816 5 205 0.0 1.6 0.00 0.00 0.00 66 1009.6
20260504001313 5 302 0.0 0.0 0.00 0.00 0.00 66 1009.6
20260504000810 5 4 1.6 1.6 0.00 0.00 0.00 65 1009.6
20260504000307 6 220 1.6 4.8 0.00 0.00 0.00 65 1009.6
20260503235804 6 223 3.2 4.8 0.00 0.00 0.00 63 1009.6
20260503235302 6 294 0.0 0.0 0.00 0.00 0.00 61 1009.3
20260503234759 6 309 0.0 0.0 0.00 0.00 0.00 62 1009.3
20260503234257 6 293 1.6 4.8 0.00 0.00 0.00 58 1009.3
20260503233754 7 314 0.0 0.0 0.00 0.00 0.00 58 1009.3
20260503233249 6 235 3.2 4.8 0.00 0.00 0.00 57 1009.0
20260503232747 7 201 0.0 3.2 0.00 0.00 0.00 56 1009.3
20260503232244 7 337 0.0 1.6 0.00 0.00 0.00 56 1009.0
20260503231742 7 284 3.2 4.8 0.00 0.00 0.00 55 1009.0
20260503231239 7 231 1.6 4.8 0.00 0.00 0.00 55 1009.0
20260503230734 7 322 3.2 6.4 0.00 0.00 0.00 55 1009.0
20260503230232 7 241 0.0 4.8 0.00 0.00 0.00 54 1009.0
20260503225730 8 310 0.0 6.4 0.00 0.00 0.00 53 1008.6
20260503225229 8 319 3.2 6.4 0.00 0.00 0.00 53 1008.6
20260503224727 8 300 1.6 3.2 0.00 0.00 0.00 53 1008.6
20260503224224 8 175 0.0 3.2 0.00 0.00 0.00 52 1008.6
20260503223722 8 260 0.0 3.2 0.00 0.00 0.00 52 1008.6
20260503223219 8 339 3.2 4.8 0.00 0.00 0.00 51 1008.6
20260503222715 8 290 0.0 3.2 0.00 0.00 0.00 51 1008.6
20260503222213 8 38 0.0 6.4 0.00 0.00 0.00 51 1009.0
20260503221712 8 343 1.6 4.8 0.00 0.00 0.00 52 1008.6
20260503221209 8 296 0.0 3.2 0.00 0.00 0.00 52 1008.3
20260503220705 8 326 6.4 6.4 0.00 0.00 0.00 51 1008.3
20260503220202 8 336 3.2 3.2 0.00 0.00 0.00 51 1008.3
20260503215659 8 338 3.2 4.8 0.00 0.00 0.00 50 1008.3
20260503215155 8 35 3.2 4.8 0.00 0.00 0.00 51 1008.3
20260503214654 8 312 3.2 6.4 0.00 0.00 0.00 51 1008.3
20260503214150 8 225 4.8 4.8 0.00 0.00 0.00 48 1008.3
20260503213649 8 203 1.6 6.4 0.00 0.00 0.00 49 1007.9
20260503213146 10 341 3.2 4.8 0.00 0.00 0.00 49 1008.3
20260503212643 10 330 4.8 6.4 0.00 0.00 0.00 50 1008.3